TimeEST,TemperatureF,Dew PointF,Humidity,Sea Level PressureIn,VisibilityMPH,Wind Direction,Wind SpeedMPH,Gust SpeedMPH,PrecipitationIn,Events,Conditions,WindDirDegrees,DateUTC
12:53 AM,34.0,18.0,52,29.80,10.0,West,8.1,-,N/A,,Overcast,270,2012-11-25 05:53:00
1:53 AM,34.0,18.0,52,29.81,10.0,West,10.4,-,N/A,,Overcast,280,2012-11-25 06:53:00
2:53 AM,34.0,18.0,52,29.82,10.0,West,11.5,19.6,N/A,,Overcast,270,2012-11-25 07:53:00
3:53 AM,33.1,16.0,50,29.84,10.0,WNW,13.8,21.9,N/A,,Clear,300,2012-11-25 08:53:00
4:53 AM,33.1,15.1,48,29.85,10.0,WNW,9.2,20.7,N/A,,Clear,290,2012-11-25 09:53:00
5:53 AM,32.0,15.1,50,29.87,10.0,WNW,6.9,17.3,N/A,,Partly Cloudy,300,2012-11-25 10:53:00
6:53 AM,32.0,15.1,50,29.88,10.0,West,9.2,-,N/A,,Clear,280,2012-11-25 11:53:00
7:53 AM,32.0,15.1,50,29.90,10.0,West,8.1,-,N/A,,Clear,270,2012-11-25 12:53:00
8:53 AM,34.0,15.1,46,29.90,10.0,Variable,4.6,-,N/A,,Clear,0,2012-11-25 13:53:00
9:53 AM,35.1,16.0,46,29.90,10.0,WSW,13.8,18.4,N/A,,Clear,250,2012-11-25 14:53:00
10:53 AM,36.0,17.1,46,29.88,10.0,West,11.5,23.0,N/A,,Scattered Clouds,280,2012-11-25 15:53:00
11:53 AM,37.0,17.1,44,29.87,10.0,West,9.2,23.0,N/A,,Mostly Cloudy,280,2012-11-25 16:53:00
12:53 PM,37.9,17.1,43,29.84,10.0,WNW,12.7,19.6,N/A,,Overcast,300,2012-11-25 17:53:00
1:53 PM,37.9,19.0,47,29.84,10.0,West,11.5,18.4,N/A,,Overcast,260,2012-11-25 18:53:00
2:53 PM,37.9,19.9,48,29.85,10.0,WNW,9.2,-,N/A,,Overcast,290,2012-11-25 19:53:00
3:53 PM,37.0,21.0,52,29.85,10.0,West,6.9,-,N/A,,Partly Cloudy,280,2012-11-25 20:53:00
4:53 PM,35.1,21.9,59,29.86,10.0,WSW,5.8,-,N/A,,Partly Cloudy,250,2012-11-25 21:53:00
5:53 PM,32.0,21.9,66,29.88,10.0,WSW,5.8,-,N/A,,Clear,240,2012-11-25 22:53:00
6:53 PM,33.1,23.0,66,29.90,10.0,SW,3.5,-,N/A,,Overcast,230,2012-11-25 23:53:00
7:53 PM,35.1,21.9,59,29.91,10.0,SSW,6.9,-,N/A,,Overcast,210,2012-11-26 00:53:00
8:53 PM,35.1,21.9,59,29.93,10.0,SW,5.8,-,N/A,,Overcast,230,2012-11-26 01:53:00
9:53 PM,35.1,21.0,57,29.93,10.0,SSW,6.9,-,N/A,,Overcast,210,2012-11-26 02:53:00
10:53 PM,33.1,19.9,59,29.94,10.0,SW,5.8,-,N/A,,Mostly Cloudy,220,2012-11-26 03:53:00
11:53 PM,32.0,19.9,61,29.95,10.0,WSW,5.8,-,N/A,,Scattered Clouds,240,2012-11-26 04:53:00